Regional Weather Roundup
Issued by NWS Raleigh/Durham, NC

Home | Current Version | Previous Version | Text Only | Print | Product List | Glossary On
Versions: 1 2 3 4 5 6 7 8 9 10 11 12 13 14 15 16 17 18 19 20 21 22 23 24 25 26 27 28 29 30 31 32 33 34 35 36 37 38 39 40 41 42 43 44 45 46 47 48 49 50
000
ASUS42 KRAH 090610
RWRRAH
NORTH CAROLINA WEATHER ROUNDUP
NATIONAL WEATHER SERVICE RALEIGH NC
100 AM EST FRI DEC 09 2016

NOTE: "FAIR" INDICATES FEW OR NO CLOUDS BELOW 12,000 FEET WITH NO
SIGNIFICANT WEATHER AND/OR OBSTRUCTIONS TO VISIBILITY.

NCZ001-053-055-056-065-067-090700-
WESTERN NORTH CAROLINA

CITY           SKY/WX    TMP DP  RH WIND       PRES   REMARKS
ASHEVILLE      CLOUDY    28  11  48 N12G20    30.28R WCI  18
JEFFERSON      CLEAR     21  10  62 NW17      30.17F WCI   7
MORGANTON      PTCLDY    33  13  43 NW7       30.32S WCI  27
HICKORY        PTCLDY    33  13  43 NW6       30.27S WCI  28
RUTHERFORDTON  CLOUDY    30  19  64 CALM      30.30R
MOUNT AIRY     NOT AVBL
BOONE          CLOUDY    23   9  55 NW8G25    30.18R WCI  14
$$

NCZ021-022-025-041-071-084-088-090700-
CENTRAL NORTH CAROLINA

CITY           SKY/WX    TMP DP  RH WIND       PRES   REMARKS
CHARLOTTE      PTCLDY    35  14  42 N9        30.26F WCI  28
GREENSBORO     PTCLDY    31  14  49 NW7       30.25R WCI  24
WINSTON-SALEM  CLEAR     34   9  35 NW12      30.27R WCI  25
RALEIGH-DURHAM PTCLDY    38  11  32 VRB6      30.24S WCI  33
FORT BRAGG     CLOUDY    37  18  46 NW7       30.23S WCI  32
FAYETTEVILLE   CLOUDY    40  20  44 NW5       30.24S
BURLINGTON     CLEAR     35  14  42 NW7       30.25S WCI  29
LAURINBURG     PTCLDY    37  23  56 NW6       30.26S WCI  32
$$

NCZ011-015-027-028-043-044-047-080-103-090700-
NORTHEASTERN NORTH CAROLINA

CITY           SKY/WX    TMP DP  RH WIND       PRES   REMARKS
ROCKY MT-WILSO CLEAR     37  19  48 NW7       30.22R WCI  32
GREENVILLE     CLEAR     37  21  52 CALM      30.22R
WASHINGTON     CLEAR     37  24  60 NW3       30.21R
ELIZABETH CITY CLEAR     36  24  62 W10       30.18R WCI  28
MANTEO         PTCLDY    44  25  47 N12G21    30.15S
CAPE HATTERAS  PTCLDY    46  28  49 NW10G22   30.15S
$$

NCZ078-087-090-091-093-098-101-090700-
SOUTHEASTERN NORTH CAROLINA

CITY           SKY/WX    TMP DP  RH WIND       PRES   REMARKS
LUMBERTON      PTCLDY    38  26  62 NW7       30.25R WCI  33
GOLDSBORO      CLOUDY    40  19  43 NW6       30.21R
KINSTON        CLOUDY    38  23  53 CALM      30.22R
KENANSVILLE    PTCLDY    41  21  45 NW7       30.23R
NEW BERN       CLEAR     41  24  51 NW8       30.21R
CHERRY POINT   CLEAR     43  24  47 NW12      30.21R
BEAUFORT       PTCLDY    45  29  53 NW13      30.19R
JACKSONVILLE   PTCLDY    38  32  79 W9        30.21R WCI  31
WILMINGTON     PTCLDY    40  29  64 NW7       30.22R
$$




USA.gov is the U.S. government's official web portal to all federal, state and local government web resources and services.